| time (UTC) | temp C | wind direction | speed KPH | gust KPH | rain 1hr cm | rain 24hr cm | rain mn cm | humidity % | barometer mb |
| 20260507013029 | 16 | 21 | 4.8 | 8.0 | 0.00 | 0.00 | 0.00 | 84 | 1010.0 |
| 20260507011527 | 16 | 4 | 3.2 | 8.0 | 0.00 | 0.00 | 0.00 | 83 | 1010.0 |
| 20260507010037 | 16 | 21 | 3.2 | 8.0 | 0.00 | 0.00 | 0.00 | 83 | 1010.1 |
| 20260507004527 | 16 | 27 | 4.8 | 12.9 | 0.00 | 0.00 | 0.00 | 84 | 1010.1 |
| 20260507003023 | 16 | 20 | 4.8 | 9.7 | 0.00 | 0.00 | 0.00 | 84 | 1010.2 |
| 20260507001520 | 16 | 20 | 6.4 | 11.3 | 0.00 | 0.00 | 0.00 | 84 | 1010.4 |
| 20260507000023 | 16 | 35 | 6.4 | 14.5 | 0.00 | 0.00 | 0.00 | 85 | 1010.5 |
| 20260506234516 | 17 | 21 | 8.0 | 14.5 | 0.00 | 0.00 | 0.00 | 85 | 1010.7 |
| 20260506233014 | 17 | 50 | 6.4 | 14.5 | 0.00 | 0.00 | 0.00 | 86 | 1010.6 |
| 20260506231611 | 17 | 67 | 6.4 | 12.9 | 0.00 | 0.00 | 0.00 | 87 | 1010.7 |
| 20260506230009 | 17 | 46 | 8.0 | 11.3 | 0.00 | 0.00 | 0.00 | 87 | 1010.8 |
| 20260506224509 | 17 | 23 | 4.8 | 11.3 | 0.00 | 0.00 | 0.00 | 87 | 1010.7 |
| 20260506223008 | 17 | 65 | 6.4 | 11.3 | 0.00 | 0.00 | 0.00 | 87 | 1010.7 |
| 20260506221510 | 17 | 68 | 8.0 | 12.9 | 0.00 | 0.00 | 0.00 | 87 | 1010.7 |
| 20260506220007 | 17 | 44 | 4.8 | 9.7 | 0.00 | 0.00 | 0.00 | 87 | 1010.9 |
| 20260506214506 | 17 | 61 | 4.8 | 9.7 | 0.00 | 0.00 | 0.00 | 86 | 1011.0 |
| 20260506213005 | 17 | 68 | 4.8 | 9.7 | 0.00 | 0.00 | 0.00 | 86 | 1011.3 |
| 20260506211505 | 17 | 72 | 6.4 | 12.9 | 0.00 | 0.00 | 0.00 | 86 | 1011.2 |
| 20260506210002 | 17 | 92 | 11.3 | 14.5 | 0.00 | 0.00 | 0.00 | 86 | 1011.0 |
| 20260506204601 | 17 | 49 | 8.0 | 11.3 | 0.00 | 0.00 | 0.00 | 86 | 1011.0 |
| 20260506203059 | 17 | 74 | 9.7 | 12.9 | 0.00 | 0.00 | 0.00 | 87 | 1010.8 |
| 20260506201600 | 17 | 63 | 11.3 | 16.1 | 0.00 | 0.00 | 0.00 | 87 | 1010.7 |
| 20260506200057 | 17 | 63 | 11.3 | 17.7 | 0.00 | 0.00 | 0.00 | 86 | 1010.5 |
| 20260506194557 | 17 | 49 | 11.3 | 17.7 | 0.00 | 0.00 | 0.00 | 86 | 1010.2 |
| 20260506193058 | 17 | 62 | 14.5 | 17.7 | 0.00 | 0.00 | 0.00 | 86 | 1010.1 |
| 20260506191601 | 17 | 66 | 16.1 | 22.5 | 0.00 | 0.00 | 0.00 | 86 | 1009.8 |
| 20260506190054 | 17 | 51 | 16.1 | 20.9 | 0.00 | 0.00 | 0.00 | 85 | 1009.8 |
| 20260506184557 | 17 | 75 | 16.1 | 20.9 | 0.00 | 0.00 | 0.00 | 85 | 1009.7 |
| 20260506183102 | 17 | 61 | 14.5 | 20.9 | 0.00 | 0.00 | 0.00 | 85 | 1009.5 |
| 20260506181603 | 17 | 79 | 19.3 | 22.5 | 0.00 | 0.00 | 0.00 | 84 | 1009.6 |
| 20260506180049 | 17 | 58 | 17.7 | 24.1 | 0.00 | 0.00 | 0.00 | 85 | 1009.4 |
| 20260506174550 | 17 | 76 | 20.9 | 27.4 | 0.00 | 0.00 | 0.00 | 84 | 1009.6 |
| 20260506173116 | 17 | 59 | 19.3 | 25.7 | 0.00 | 0.00 | 0.00 | 85 | 1009.4 |
| 20260506171547 | 17 | 49 | 20.9 | 29.0 | 0.00 | 0.00 | 0.00 | 85 | 1009.5 |
| 20260506170103 | 18 | 68 | 20.9 | 27.4 | 0.00 | 0.00 | 0.00 | 84 | 1009.3 |
| 20260506164546 | 18 | 61 | 20.9 | 29.0 | 0.00 | 0.00 | 0.00 | 83 | 1009.3 |
| 20260506163054 | 18 | 79 | 20.9 | 30.6 | 0.00 | 0.00 | 0.00 | 82 | 1009.2 |
| 20260506161546 | 18 | 56 | 22.5 | 30.6 | 0.00 | 0.00 | 0.00 | 83 | 1009.3 |
| 20260506160045 | 18 | 63 | 24.1 | 32.2 | 0.00 | 0.00 | 0.00 | 83 | 1009.2 |
| 20260506154600 | 18 | 45 | 24.1 | 30.6 | 0.00 | 0.00 | 0.00 | 82 | 1009.2 |
| 20260506153040 | 18 | 58 | 25.7 | 32.2 | 0.00 | 0.00 | 0.00 | 82 | 1009.3 |
| 20260506151539 | 18 | 70 | 27.4 | 33.8 | 0.00 | 0.00 | 0.00 | 81 | 1009.3 |
| 20260506150038 | 18 | 51 | 25.7 | 32.2 | 0.00 | 0.00 | 0.00 | 79 | 1009.4 |
| 20260506144543 | 18 | 68 | 27.4 | 33.8 | 0.00 | 0.00 | 0.00 | 80 | 1009.5 |
| 20260506143036 | 18 | 59 | 29.0 | 35.4 | 0.00 | 0.00 | 0.00 | 77 | 1009.7 |
| 20260506141535 | 18 | 71 | 27.4 | 32.2 | 0.00 | 0.00 | 0.00 | 79 | 1009.7 |
| 20260506140037 | 18 | 56 | 25.7 | 35.4 | 0.00 | 0.00 | 0.00 | 80 | 1010.0 |
| 20260506134534 | 18 | 64 | 25.7 | 32.2 | 0.00 | 0.00 | 0.00 | 81 | 1009.8 |
| 20260506133039 | 18 | 50 | 27.4 | 33.8 | 0.00 | 0.00 | 0.00 | 79 | 1009.9 |
| 20260506131534 | 18 | 62 | 25.7 | 35.4 | 0.00 | 0.00 | 0.00 | 80 | 1010.0 |
| 20260506130035 | 18 | 71 | 29.0 | 33.8 | 0.00 | 0.00 | 0.00 | 81 | 1010.2 |
| 20260506124533 | 18 | 70 | 25.7 | 35.4 | 0.00 | 0.00 | 0.00 | 82 | 1010.2 |
| 20260506123031 | 18 | 53 | 24.1 | 35.4 | 0.00 | 0.00 | 0.00 | 81 | 1010.2 |
| 20260506121531 | 18 | 76 | 27.4 | 32.2 | 0.00 | 0.00 | 0.00 | 82 | 1010.3 |
| 20260506120030 | 18 | 68 | 25.7 | 33.8 | 0.00 | 0.00 | 0.00 | 82 | 1010.3 |
| 20260506114529 | 18 | 54 | 27.4 | 32.2 | 0.00 | 0.00 | 0.00 | 83 | 1010.4 |
| 20260506113028 | 18 | 61 | 29.0 | 35.4 | 0.00 | 0.00 | 0.00 | 82 | 1010.4 |
| 20260506111526 | 18 | 64 | 27.4 | 35.4 | 0.00 | 0.00 | 0.00 | 80 | 1010.4 |
| 20260506110023 | 18 | 51 | 24.1 | 33.8 | 0.00 | 0.00 | 0.00 | 80 | 1010.6 |
| 20260506104541 | 18 | 40 | 24.1 | 30.6 | 0.00 | 0.00 | 0.00 | 80 | 1010.7 |
| 20260506103020 | 18 | 56 | 24.1 | 32.2 | 0.00 | 0.00 | 0.00 | 80 | 1010.6 |
| 20260506101518 | 18 | 61 | 25.7 | 30.6 | 0.00 | 0.00 | 0.00 | 79 | 1010.6 |
| 20260506100015 | 18 | 58 | 22.5 | 29.0 | 0.00 | 0.00 | 0.00 | 79 | 1010.6 |
| 20260506094514 | 18 | 64 | 19.3 | 29.0 | 0.00 | 0.00 | 0.00 | 80 | 1010.6 |
| 20260506093013 | 18 | 80 | 19.3 | 30.6 | 0.00 | 0.00 | 0.00 | 78 | 1010.5 |
| 20260506091509 | 18 | 56 | 25.7 | 30.6 | 0.00 | 0.00 | 0.00 | 77 | 1010.3 |
| 20260506090008 | 18 | 54 | 19.3 | 27.4 | 0.00 | 0.00 | 0.00 | 76 | 1010.2 |
| 20260506084507 | 18 | 56 | 16.1 | 22.5 | 0.00 | 0.00 | 0.00 | 75 | 1010.2 |
| 20260506083009 | 18 | 50 | 12.9 | 20.9 | 0.00 | 0.00 | 0.00 | 77 | 1010.1 |
| 20260506081509 | 18 | 58 | 14.5 | 20.9 | 0.00 | 0.00 | 0.00 | 76 | 1010.1 |
| 20260506073100 | 18 | 41 | 11.3 | 16.1 | 0.00 | 0.00 | 0.00 | 79 | 1010.1 |
| 20260506071622 | 18 | 26 | 8.0 | 17.7 | 0.00 | 0.00 | 0.00 | 82 | 1010.1 |
| 20260506061553 | 16 | 332 | 4.8 | 11.3 | 0.00 | 0.00 | 0.00 | 85 | 1010.2 |
| 20260506044643 | 16 | 75 | 4.8 | 8.0 | 0.00 | 0.00 | 0.00 | 89 | 1009.2 |
| 20260506043049 | 16 | 75 | 4.8 | 6.4 | 0.00 | 0.00 | 0.00 | 85 | 1009.2 |
| 20260506041546 | 16 | 67 | 1.6 | 4.8 | 0.00 | 0.00 | 0.00 | 81 | 1009.1 |
| 20260506040047 | 16 | 63 | 1.6 | 4.8 | 0.00 | 0.00 | 0.00 | 78 | 1009.1 |
| 20260506034539 | 16 | 65 | 0.0 | 3.2 | 0.00 | 0.00 | 0.00 | 76 | 1009.2 |
| 20260506033038 | 16 | 352 | 1.6 | 6.4 | 0.00 | 0.00 | 0.00 | 72 | 1009.2 |
| 20260506031539 | 16 | 267 | 1.6 | 8.0 | 0.00 | 0.00 | 0.00 | 70 | 1009.2 |
| 20260506030034 | 16 | 297 | 0.0 | 3.2 | 0.00 | 0.00 | 0.00 | 71 | 1009.1 |
| 20260506024541 | 16 | 267 | 1.6 | 4.8 | 0.00 | 0.00 | 0.00 | 72 | 1008.9 |
| 20260506023031 | 16 | 65 | 1.6 | 3.2 | 0.00 | 0.00 | 0.00 | 76 | 1008.9 |
| 20260506021543 | 16 | 65 | 1.6 | 3.2 | 0.00 | 0.00 | 0.00 | 79 | 1008.9 |
| 20260506020026 | 16 | 65 | 0.0 | 0.0 | 0.00 | 0.00 | 0.00 | 82 | 1009.0 |
| 20260506014527 | 16 | 65 | 0.0 | 0.0 | 0.00 | 0.00 | 0.00 | 83 | 1009.0 |